Year,Month,Day,Hour,Minute,Value (Times are PST for temperature in C)
2021,06,08,00,00,9.30
2021,06,08,00,01,9.30
2021,06,08,00,02,9.30
2021,06,08,00,03,9.20
2021,06,08,00,04,9.20
2021,06,08,00,05,9.20
2021,06,08,00,06,9.20
2021,06,08,00,07,9.10
2021,06,08,00,08,9.10
2021,06,08,00,09,9.10
2021,06,08,00,10,9.00
2021,06,08,00,11,9.00
2021,06,08,00,12,9.00
2021,06,08,00,13,8.90
2021,06,08,00,14,8.90
2021,06,08,00,15,8.90
2021,06,08,00,16,8.80
2021,06,08,00,17,8.80
2021,06,08,00,18,8.80
2021,06,08,00,19,8.80
2021,06,08,00,20,8.80
2021,06,08,00,21,8.70
2021,06,08,00,22,8.70
2021,06,08,00,23,8.70
2021,06,08,00,24,8.70
2021,06,08,00,25,8.70
2021,06,08,00,26,8.70
2021,06,08,00,27,8.70
2021,06,08,00,28,8.70
2021,06,08,00,29,8.70
2021,06,08,00,30,8.70
2021,06,08,00,31,8.60
2021,06,08,00,32,8.60
2021,06,08,00,33,8.60
2021,06,08,00,34,8.60
2021,06,08,00,35,8.60
2021,06,08,00,36,8.50
2021,06,08,00,37,8.50
2021,06,08,00,38,8.50
2021,06,08,00,39,8.50
2021,06,08,00,40,8.40
2021,06,08,00,41,8.40
2021,06,08,00,42,8.40
2021,06,08,00,43,8.40
2021,06,08,00,44,8.30
2021,06,08,00,45,8.30
2021,06,08,00,46,8.30
2021,06,08,00,47,8.30
2021,06,08,00,48,8.20
2021,06,08,00,49,8.20
2021,06,08,00,50,8.20
2021,06,08,00,51,8.20
2021,06,08,00,52,8.20
2021,06,08,00,53,8.20
2021,06,08,00,54,8.20
2021,06,08,00,55,8.20
2021,06,08,00,56,8.20
2021,06,08,00,57,8.20
2021,06,08,00,58,8.20
2021,06,08,00,59,8.10
2021,06,08,01,00,8.10
2021,06,08,01,01,8.10
2021,06,08,01,02,8.10
2021,06,08,01,03,8.00
2021,06,08,01,04,8.00
2021,06,08,01,05,8.00
2021,06,08,01,06,8.00
2021,06,08,01,07,8.00
2021,06,08,01,08,8.00
2021,06,08,01,09,7.90
2021,06,08,01,10,7.90
2021,06,08,01,11,7.90
2021,06,08,01,12,7.90
2021,06,08,01,13,7.90
2021,06,08,01,14,7.80
2021,06,08,01,15,7.80
2021,06,08,01,16,7.80
2021,06,08,01,17,7.80
2021,06,08,01,18,7.80
2021,06,08,01,19,7.80
2021,06,08,01,20,7.80
2021,06,08,01,21,7.80
2021,06,08,01,22,7.80
2021,06,08,01,23,7.80
2021,06,08,01,24,7.80
2021,06,08,01,25,7.80
2021,06,08,01,26,7.80
2021,06,08,01,27,7.80
2021,06,08,01,28,7.80
2021,06,08,01,29,7.80
2021,06,08,01,30,7.80
2021,06,08,01,31,7.80
2021,06,08,01,32,7.80
2021,06,08,01,33,7.80
2021,06,08,01,34,7.80
2021,06,08,01,35,7.70
2021,06,08,01,36,7.70
2021,06,08,01,37,7.70
2021,06,08,01,38,7.70
2021,06,08,01,39,7.60
2021,06,08,01,40,7.60
2021,06,08,01,41,7.60
2021,06,08,01,42,7.60
2021,06,08,01,43,7.60
2021,06,08,01,44,7.60
2021,06,08,01,45,7.50
2021,06,08,01,46,7.50
2021,06,08,01,47,7.50
2021,06,08,01,48,7.40
2021,06,08,01,49,7.50
2021,06,08,01,50,7.50
2021,06,08,01,51,7.50
2021,06,08,01,52,7.50
2021,06,08,01,53,7.50
2021,06,08,01,54,7.50
2021,06,08,01,55,7.50
2021,06,08,01,56,7.60
2021,06,08,01,57,7.60
2021,06,08,01,58,7.60
2021,06,08,01,59,7.60
2021,06,08,02,00,7.60
2021,06,08,02,01,7.60
2021,06,08,02,02,7.50
2021,06,08,02,03,7.50
2021,06,08,02,04,7.50
2021,06,08,02,05,7.50
2021,06,08,02,06,7.50
2021,06,08,02,07,7.40
2021,06,08,02,08,7.40
2021,06,08,02,09,7.40
2021,06,08,02,10,7.40
2021,06,08,02,11,7.30
2021,06,08,02,12,7.30
2021,06,08,02,13,7.30
2021,06,08,02,14,7.30
2021,06,08,02,15,7.30
2021,06,08,02,16,7.30
2021,06,08,02,17,7.30
2021,06,08,02,18,7.30
2021,06,08,02,19,7.30
2021,06,08,02,20,7.30
2021,06,08,02,21,7.30
2021,06,08,02,22,7.30
2021,06,08,02,23,7.30
2021,06,08,02,24,7.30
2021,06,08,02,25,7.30
2021,06,08,02,26,7.30
2021,06,08,02,27,7.30
2021,06,08,02,28,7.20
2021,06,08,02,29,7.20
2021,06,08,02,30,7.20
2021,06,08,02,31,7.20
2021,06,08,02,32,7.20
2021,06,08,02,33,7.20
2021,06,08,02,34,7.10
2021,06,08,02,35,7.10
2021,06,08,02,36,7.10
2021,06,08,02,37,7.10
2021,06,08,02,38,7.10
2021,06,08,02,39,7.10
2021,06,08,02,40,7.10
2021,06,08,02,41,7.10
2021,06,08,02,42,7.10
2021,06,08,02,43,7.10
2021,06,08,02,44,7.10
2021,06,08,02,45,7.10
2021,06,08,02,46,7.10
2021,06,08,02,47,7.00
2021,06,08,02,48,7.00
2021,06,08,02,49,7.00
2021,06,08,02,50,7.00
2021,06,08,02,51,7.00
2021,06,08,02,52,7.00
2021,06,08,02,53,7.00
2021,06,08,02,54,6.90
2021,06,08,02,55,6.90
2021,06,08,02,56,6.90
2021,06,08,02,57,6.90
2021,06,08,02,58,6.90
2021,06,08,02,59,6.90
2021,06,08,03,00,6.90
2021,06,08,03,01,6.90
2021,06,08,03,02,6.90
2021,06,08,03,03,6.90
2021,06,08,03,04,6.90
2021,06,08,03,05,6.90
2021,06,08,03,06,6.80
2021,06,08,03,07,6.80
2021,06,08,03,08,6.80
2021,06,08,03,09,6.80
2021,06,08,03,10,6.80
2021,06,08,03,11,6.80
2021,06,08,03,12,6.80
2021,06,08,03,13,6.70
2021,06,08,03,14,6.70
2021,06,08,03,15,6.70
2021,06,08,03,16,6.70
2021,06,08,03,17,6.70
2021,06,08,03,18,6.70
2021,06,08,03,19,6.70
2021,06,08,03,20,6.70
2021,06,08,03,21,6.70
2021,06,08,03,22,6.70
2021,06,08,03,23,6.70
2021,06,08,03,24,6.70
2021,06,08,03,25,6.70
2021,06,08,03,26,6.70
2021,06,08,03,27,6.70
2021,06,08,03,28,6.70
2021,06,08,03,29,6.70
2021,06,08,03,30,6.70
2021,06,08,03,31,6.70
2021,06,08,03,32,6.70
2021,06,08,03,33,6.70
2021,06,08,03,34,6.70
2021,06,08,03,35,6.70
2021,06,08,03,36,6.70
2021,06,08,03,37,6.60
2021,06,08,03,38,6.60
2021,06,08,03,39,6.60
2021,06,08,03,40,6.60
2021,06,08,03,41,6.60
2021,06,08,03,42,6.60
2021,06,08,03,43,6.60
2021,06,08,03,44,6.60
2021,06,08,03,45,6.60
2021,06,08,03,46,6.60
2021,06,08,03,47,6.60
2021,06,08,03,48,6.60
2021,06,08,03,49,6.60
2021,06,08,03,50,6.60
2021,06,08,03,51,6.60
2021,06,08,03,52,6.60
2021,06,08,03,53,6.60
2021,06,08,03,54,6.60
2021,06,08,03,55,6.60
2021,06,08,03,56,6.60
2021,06,08,03,57,6.60
2021,06,08,03,58,6.60
2021,06,08,03,59,6.40
2021,06,08,04,00,6.40
2021,06,08,04,01,6.40
2021,06,08,04,02,6.40
2021,06,08,04,03,6.40
2021,06,08,04,04,6.40
2021,06,08,04,05,6.40
2021,06,08,04,06,6.40
2021,06,08,04,07,6.40
2021,06,08,04,08,6.40
2021,06,08,04,09,6.40
2021,06,08,04,10,6.40
2021,06,08,04,11,6.40
2021,06,08,04,12,6.40
2021,06,08,04,13,6.40
2021,06,08,04,14,6.40
2021,06,08,04,15,6.40
2021,06,08,04,16,6.40
2021,06,08,04,17,6.40
2021,06,08,04,18,6.40
2021,06,08,04,19,6.40
2021,06,08,04,20,6.40
2021,06,08,04,21,6.40
2021,06,08,04,22,6.40
2021,06,08,04,23,6.40
2021,06,08,04,24,6.40
2021,06,08,04,25,6.40
2021,06,08,04,26,6.40
2021,06,08,04,27,6.40
2021,06,08,04,28,6.40
2021,06,08,04,29,6.40
2021,06,08,04,30,6.40
2021,06,08,04,31,6.40
2021,06,08,04,32,6.30
2021,06,08,04,33,6.30
2021,06,08,04,34,6.30
2021,06,08,04,35,6.30
2021,06,08,04,36,6.30
2021,06,08,04,37,6.30
2021,06,08,04,38,6.30
2021,06,08,04,39,6.30
2021,06,08,04,40,6.30
2021,06,08,04,41,6.30
2021,06,08,04,42,6.30
2021,06,08,04,43,6.30
2021,06,08,04,44,6.20
2021,06,08,04,45,6.20
2021,06,08,04,46,6.20
2021,06,08,04,47,6.20
2021,06,08,04,48,6.20
2021,06,08,04,49,6.20
2021,06,08,04,50,6.20
2021,06,08,04,51,6.20
2021,06,08,04,52,6.20
2021,06,08,04,53,6.20
2021,06,08,04,54,6.20
2021,06,08,04,55,6.20
2021,06,08,04,56,6.20
2021,06,08,04,57,6.20
2021,06,08,04,58,6.20
2021,06,08,04,59,6.20
2021,06,08,05,00,6.20
2021,06,08,05,01,6.20
2021,06,08,05,02,6.20
2021,06,08,05,03,6.20
2021,06,08,05,04,6.20
2021,06,08,05,05,6.20
2021,06,08,05,06,6.20
2021,06,08,05,07,6.20
2021,06,08,05,08,6.20
2021,06,08,05,09,6.20
2021,06,08,05,10,6.20
2021,06,08,05,11,6.30
2021,06,08,05,12,6.30
2021,06,08,05,13,6.30
2021,06,08,05,14,6.30
2021,06,08,05,15,6.30
2021,06,08,05,16,6.30
2021,06,08,05,17,6.20
2021,06,08,05,18,6.20
2021,06,08,05,19,6.20
2021,06,08,05,20,6.20
2021,06,08,05,21,6.20
2021,06,08,05,22,6.20
2021,06,08,05,23,6.20
2021,06,08,05,24,6.20
2021,06,08,05,25,6.30
2021,06,08,05,26,6.30
2021,06,08,05,27,6.30
2021,06,08,05,28,6.40
2021,06,08,05,29,6.40
2021,06,08,05,30,6.40
2021,06,08,05,31,6.40
2021,06,08,05,32,6.40
2021,06,08,05,33,6.40
2021,06,08,05,34,6.40
2021,06,08,05,35,6.40
2021,06,08,05,36,6.40
2021,06,08,05,37,6.40
2021,06,08,05,38,6.40
2021,06,08,05,39,6.40
2021,06,08,05,40,6.40
2021,06,08,05,41,6.40
2021,06,08,05,42,6.40
2021,06,08,05,43,6.30
2021,06,08,05,44,6.30
2021,06,08,05,45,6.30
2021,06,08,05,46,6.30
2021,06,08,05,47,6.30
2021,06,08,05,48,6.30
2021,06,08,05,49,6.30
2021,06,08,05,50,6.30
2021,06,08,05,51,6.30
2021,06,08,05,52,6.30
2021,06,08,05,53,6.40
2021,06,08,05,54,6.40
2021,06,08,05,55,6.40
2021,06,08,05,56,6.40
2021,06,08,05,57,6.40
2021,06,08,05,58,6.40
2021,06,08,05,59,6.40
2021,06,08,06,00,6.40
2021,06,08,06,01,6.50
2021,06,08,06,02,6.60
2021,06,08,06,03,6.60
2021,06,08,06,04,6.60
2021,06,08,06,05,6.60
2021,06,08,06,06,6.60
2021,06,08,06,07,6.70
2021,06,08,06,08,6.70
2021,06,08,06,09,6.70
2021,06,08,06,10,6.80
2021,06,08,06,11,6.80
2021,06,08,06,12,6.80
2021,06,08,06,13,6.80
2021,06,08,06,14,6.80
2021,06,08,06,15,6.90
2021,06,08,06,16,6.90
2021,06,08,06,17,6.90
2021,06,08,06,18,7.00
2021,06,08,06,19,7.00
2021,06,08,06,20,7.00
2021,06,08,06,21,7.10
2021,06,08,06,22,7.10
2021,06,08,06,23,7.20
2021,06,08,06,24,7.20
2021,06,08,06,25,7.20
2021,06,08,06,26,7.30
2021,06,08,06,27,7.30
2021,06,08,06,28,7.30
2021,06,08,06,29,7.40
2021,06,08,06,30,7.50
2021,06,08,06,31,7.60
2021,06,08,06,32,7.70
2021,06,08,06,33,7.80
2021,06,08,06,34,7.80
2021,06,08,06,35,7.90
2021,06,08,06,36,7.90
2021,06,08,06,37,8.00
2021,06,08,06,38,8.00
2021,06,08,06,39,8.10
2021,06,08,06,40,8.20
2021,06,08,06,41,8.20
2021,06,08,06,42,8.20
2021,06,08,06,43,8.30
2021,06,08,06,44,8.30
2021,06,08,06,45,8.40
2021,06,08,06,46,8.50
2021,06,08,06,47,8.50
2021,06,08,06,48,8.60
2021,06,08,06,49,8.60
2021,06,08,06,50,8.70
2021,06,08,06,51,8.70
2021,06,08,06,52,8.80
2021,06,08,06,53,8.80
2021,06,08,06,54,8.90
2021,06,08,06,55,9.00
2021,06,08,06,56,9.00
2021,06,08,06,57,9.10
2021,06,08,06,58,9.20
2021,06,08,06,59,9.20
2021,06,08,07,00,9.30
2021,06,08,07,01,9.40
2021,06,08,07,02,9.50
2021,06,08,07,03,9.60
2021,06,08,07,04,9.70
2021,06,08,07,05,9.70
2021,06,08,07,06,9.70
2021,06,08,07,07,9.80
2021,06,08,07,08,9.80
2021,06,08,07,09,9.90
2021,06,08,07,10,9.90
2021,06,08,07,11,9.90
2021,06,08,07,12,9.90
2021,06,08,07,13,10.00
2021,06,08,07,14,10.10
2021,06,08,07,15,10.10
2021,06,08,07,16,10.10
2021,06,08,07,17,10.20
2021,06,08,07,18,10.20
2021,06,08,07,19,10.30
2021,06,08,07,20,10.40
2021,06,08,07,21,10.40
2021,06,08,07,22,10.40
2021,06,08,07,23,10.50
2021,06,08,07,24,10.60
2021,06,08,07,25,10.60
2021,06,08,07,26,10.60
2021,06,08,07,27,10.60
2021,06,08,07,28,10.70
2021,06,08,07,29,10.70
2021,06,08,07,30,10.80
2021,06,08,07,31,10.90
2021,06,08,07,32,10.90
2021,06,08,07,33,10.90
2021,06,08,07,34,11.10
2021,06,08,07,35,11.10
2021,06,08,07,36,11.10
2021,06,08,07,37,11.10
2021,06,08,07,38,11.20
2021,06,08,07,39,11.20
2021,06,08,07,40,11.30
2021,06,08,07,41,11.40
2021,06,08,07,42,11.40
2021,06,08,07,43,11.50
2021,06,08,07,44,11.60
2021,06,08,07,45,11.60
2021,06,08,07,46,11.70
2021,06,08,07,47,11.70
2021,06,08,07,48,11.80
2021,06,08,07,49,11.80
2021,06,08,07,50,11.90
2021,06,08,07,51,11.90
2021,06,08,07,52,12.00
2021,06,08,07,53,12.00
2021,06,08,07,54,12.10
2021,06,08,07,55,12.30
2021,06,08,07,56,12.40
2021,06,08,07,57,12.50
2021,06,08,07,58,12.60
2021,06,08,07,59,12.60
2021,06,08,08,00,12.70
2021,06,08,08,01,12.70
2021,06,08,08,02,12.70
2021,06,08,08,03,12.70
2021,06,08,08,04,12.70
2021,06,08,08,05,12.80
2021,06,08,08,06,12.80
2021,06,08,08,07,12.90
2021,06,08,08,08,12.90
2021,06,08,08,09,12.90
2021,06,08,08,10,12.90
2021,06,08,08,11,12.90
2021,06,08,08,12,12.90
2021,06,08,08,13,12.90
2021,06,08,08,14,13.00
2021,06,08,08,15,13.10
2021,06,08,08,16,13.20
2021,06,08,08,17,13.20
2021,06,08,08,18,13.10
2021,06,08,08,19,13.20
2021,06,08,08,20,13.20
2021,06,08,08,21,13.30
2021,06,08,08,22,13.40
2021,06,08,08,23,13.50
2021,06,08,08,24,13.50
2021,06,08,08,25,13.60
2021,06,08,08,26,13.70
2021,06,08,08,27,13.70
2021,06,08,08,28,13.70
2021,06,08,08,29,13.70
2021,06,08,08,30,13.70
2021,06,08,08,31,13.70
2021,06,08,08,32,13.70
2021,06,08,08,33,13.60
2021,06,08,08,34,13.60
2021,06,08,08,35,13.60
2021,06,08,08,36,13.60
2021,06,08,08,37,13.50
2021,06,08,08,38,13.50
2021,06,08,08,39,13.40
2021,06,08,08,40,13.40
2021,06,08,08,41,13.40
2021,06,08,08,42,13.50
2021,06,08,08,43,13.50
2021,06,08,08,44,13.60
2021,06,08,08,45,13.50
2021,06,08,08,46,13.50
2021,06,08,08,47,13.60
2021,06,08,08,48,13.60
2021,06,08,08,49,13.70
2021,06,08,08,50,13.70
2021,06,08,08,51,13.80
2021,06,08,08,52,13.90
2021,06,08,08,53,14.00
2021,06,08,08,54,14.00
2021,06,08,08,55,14.00
2021,06,08,08,56,14.10
2021,06,08,08,57,14.10
2021,06,08,08,58,14.20
2021,06,08,08,59,14.20
2021,06,08,09,00,14.20
2021,06,08,09,01,14.20
2021,06,08,09,02,14.20
2021,06,08,09,03,14.20
2021,06,08,09,04,14.20
2021,06,08,09,05,14.30
2021,06,08,09,06,14.30
2021,06,08,09,07,14.40
2021,06,08,09,08,14.40
2021,06,08,09,09,14.50
2021,06,08,09,10,14.50
2021,06,08,09,11,14.60
2021,06,08,09,12,14.60
2021,06,08,09,13,14.60
2021,06,08,09,14,14.60
2021,06,08,09,15,14.70
2021,06,08,09,16,14.70
2021,06,08,09,17,14.70
2021,06,08,09,18,14.70
2021,06,08,09,19,14.70
2021,06,08,09,20,14.70
2021,06,08,09,21,14.60
2021,06,08,09,22,14.60
2021,06,08,09,23,14.60
2021,06,08,09,24,14.50
2021,06,08,09,25,14.50
2021,06,08,09,26,14.50
2021,06,08,09,27,14.50
2021,06,08,09,28,14.40
2021,06,08,09,29,14.40
2021,06,08,09,30,14.40
2021,06,08,09,31,14.40
2021,06,08,09,32,14.40
2021,06,08,09,33,14.40
2021,06,08,09,34,14.40
2021,06,08,09,35,14.40
2021,06,08,09,36,14.40
2021,06,08,09,37,14.50
2021,06,08,09,38,14.60
2021,06,08,09,39,14.60
2021,06,08,09,40,14.60
2021,06,08,09,41,14.70
2021,06,08,09,42,14.80
2021,06,08,09,43,14.80
2021,06,08,09,44,14.80
2021,06,08,09,45,14.80
2021,06,08,09,46,14.80
2021,06,08,09,47,14.90
2021,06,08,09,48,14.90
2021,06,08,09,49,14.90
2021,06,08,09,50,14.90
2021,06,08,09,51,14.90
2021,06,08,09,52,15.00
2021,06,08,09,53,15.00
2021,06,08,09,54,15.10
2021,06,08,09,55,15.20
2021,06,08,09,56,15.20
2021,06,08,09,57,15.30
2021,06,08,09,58,15.40
2021,06,08,09,59,15.50
2021,06,08,10,00,15.50
2021,06,08,10,01,15.60
2021,06,08,10,02,15.60
2021,06,08,10,03,15.60
2021,06,08,10,04,15.60
2021,06,08,10,05,15.60
2021,06,08,10,06,15.50
2021,06,08,10,07,15.50
2021,06,08,10,08,15.50
2021,06,08,10,09,15.50
2021,06,08,10,10,15.30
2021,06,08,10,11,15.30
2021,06,08,10,12,15.30
2021,06,08,10,13,15.30
2021,06,08,10,14,15.30
2021,06,08,10,15,15.30
2021,06,08,10,16,15.30
2021,06,08,10,17,15.30
2021,06,08,10,18,15.30
2021,06,08,10,19,15.30
2021,06,08,10,20,15.40
2021,06,08,10,21,15.50
2021,06,08,10,22,15.50
2021,06,08,10,23,15.50
2021,06,08,10,24,15.60
2021,06,08,10,25,15.70
2021,06,08,10,26,15.80
2021,06,08,10,27,15.70
2021,06,08,10,28,15.70
2021,06,08,10,29,15.60
2021,06,08,10,30,15.50
2021,06,08,10,31,15.30
2021,06,08,10,32,15.40
2021,06,08,10,33,15.30
2021,06,08,10,34,15.30
2021,06,08,10,35,15.30
2021,06,08,10,36,15.40
2021,06,08,10,37,15.50
2021,06,08,10,38,15.50
2021,06,08,10,39,15.60
2021,06,08,10,40,15.60
2021,06,08,10,41,15.40
2021,06,08,10,42,15.30
2021,06,08,10,43,15.10
2021,06,08,10,44,15.00
2021,06,08,10,45,14.90
2021,06,08,10,46,14.80
2021,06,08,10,47,14.80
2021,06,08,10,48,14.90
2021,06,08,10,49,15.00
2021,06,08,10,50,15.20
2021,06,08,10,51,15.30
2021,06,08,10,52,15.30
2021,06,08,10,53,15.30
2021,06,08,10,54,15.30
2021,06,08,10,55,15.30
2021,06,08,10,56,15.10
2021,06,08,10,57,15.00
2021,06,08,10,58,14.90
2021,06,08,10,59,14.90
2021,06,08,11,00,14.80
2021,06,08,11,01,15.00
2021,06,08,11,02,15.10
2021,06,08,11,03,15.10
2021,06,08,11,04,14.90
2021,06,08,11,05,14.70
2021,06,08,11,06,14.60
2021,06,08,11,07,14.50
2021,06,08,11,08,14.40
2021,06,08,11,09,14.40
2021,06,08,11,10,14.40
2021,06,08,11,11,14.50
2021,06,08,11,12,14.50
2021,06,08,11,13,14.60
2021,06,08,11,14,14.70
2021,06,08,11,15,14.90
2021,06,08,11,16,15.00
2021,06,08,11,17,15.20
2021,06,08,11,18,15.30
2021,06,08,11,19,15.30
2021,06,08,11,20,15.20
2021,06,08,11,21,15.20
2021,06,08,11,22,15.20
2021,06,08,11,23,15.20
2021,06,08,11,24,15.20
2021,06,08,11,25,15.20
2021,06,08,11,26,15.30
2021,06,08,11,27,15.30
2021,06,08,11,28,15.30
2021,06,08,11,29,15.50
2021,06,08,11,30,15.50
2021,06,08,11,31,15.60
2021,06,08,11,32,15.60
2021,06,08,11,33,15.60
2021,06,08,11,34,15.50
2021,06,08,11,35,15.50
2021,06,08,11,36,15.40
2021,06,08,11,37,15.30
2021,06,08,11,38,15.20
2021,06,08,11,39,15.20
2021,06,08,11,40,15.30
2021,06,08,11,41,15.20
2021,06,08,11,42,15.30
2021,06,08,11,43,15.30
2021,06,08,11,44,15.20
2021,06,08,11,45,15.00
2021,06,08,11,46,14.80
2021,06,08,11,47,14.90
2021,06,08,11,48,15.00
2021,06,08,11,49,15.00
2021,06,08,11,50,15.00
2021,06,08,11,51,15.10
2021,06,08,11,52,15.20
2021,06,08,11,53,15.20
2021,06,08,11,54,15.20
2021,06,08,11,55,15.30
2021,06,08,11,56,15.50
2021,06,08,11,57,15.60
2021,06,08,11,58,15.70
2021,06,08,11,59,15.80
2021,06,08,12,00,15.80
2021,06,08,12,01,15.80
2021,06,08,12,02,15.80
2021,06,08,12,03,15.80
2021,06,08,12,04,15.80
2021,06,08,12,05,15.80
2021,06,08,12,06,15.80
2021,06,08,12,07,15.80
2021,06,08,12,08,15.70
2021,06,08,12,09,15.80
2021,06,08,12,10,15.80
2021,06,08,12,11,15.90
2021,06,08,12,12,15.90
2021,06,08,12,13,15.80
2021,06,08,12,14,15.80
2021,06,08,12,15,15.80
2021,06,08,12,16,15.90
2021,06,08,12,17,16.10
2021,06,08,12,18,16.20
2021,06,08,12,19,16.30
2021,06,08,12,20,16.50
2021,06,08,12,21,16.70
2021,06,08,12,22,16.60
2021,06,08,12,23,16.60
2021,06,08,12,24,16.60
2021,06,08,12,25,16.60
2021,06,08,12,26,16.70
2021,06,08,12,27,16.90
2021,06,08,12,28,17.00
2021,06,08,12,29,17.00
2021,06,08,12,30,17.10
2021,06,08,12,31,17.20
2021,06,08,12,32,17.20
2021,06,08,12,33,17.30
2021,06,08,12,34,17.30
2021,06,08,12,35,17.30
2021,06,08,12,36,17.40
2021,06,08,12,37,17.10
2021,06,08,12,38,17.00
2021,06,08,12,39,17.00
2021,06,08,12,40,16.80
2021,06,08,12,41,16.70
2021,06,08,12,42,16.60
2021,06,08,12,43,16.50
2021,06,08,12,44,16.40
2021,06,08,12,45,16.40
2021,06,08,12,46,16.50
2021,06,08,12,47,16.60
2021,06,08,12,48,16.60
2021,06,08,12,49,16.60
2021,06,08,12,50,16.70
2021,06,08,12,51,16.80
2021,06,08,12,52,16.80
2021,06,08,12,53,16.80
2021,06,08,12,54,16.90
2021,06,08,12,55,17.00
2021,06,08,12,56,17.20
2021,06,08,12,57,17.30
2021,06,08,12,58,17.30
2021,06,08,12,59,17.20
2021,06,08,13,00,17.20
2021,06,08,13,01,17.00
2021,06,08,13,02,17.00
2021,06,08,13,03,17.00
2021,06,08,13,04,17.10
2021,06,08,13,05,17.20
2021,06,08,13,06,17.30
2021,06,08,13,07,17.40
2021,06,08,13,08,17.60
2021,06,08,13,09,17.70
2021,06,08,13,10,17.80
2021,06,08,13,11,17.90
2021,06,08,13,12,17.90
2021,06,08,13,13,18.00
2021,06,08,13,14,18.10
2021,06,08,13,15,18.10
2021,06,08,13,16,18.30
2021,06,08,13,17,18.30
2021,06,08,13,18,18.20
2021,06,08,13,19,18.20
2021,06,08,13,20,18.20
2021,06,08,13,21,18.00
2021,06,08,13,22,17.90
2021,06,08,13,23,17.90
2021,06,08,13,24,17.80
2021,06,08,13,25,17.70
2021,06,08,13,26,17.70
2021,06,08,13,27,17.50
2021,06,08,13,28,17.40
2021,06,08,13,29,17.40
2021,06,08,13,30,17.50
2021,06,08,13,31,17.50
2021,06,08,13,32,17.50
2021,06,08,13,33,17.30
2021,06,08,13,34,17.10
2021,06,08,13,35,16.90
2021,06,08,13,36,16.80
2021,06,08,13,37,16.70
2021,06,08,13,38,16.50
2021,06,08,13,39,16.30
2021,06,08,13,40,16.30
2021,06,08,13,41,16.30
2021,06,08,13,42,16.50
2021,06,08,13,43,16.60
2021,06,08,13,44,16.70
2021,06,08,13,45,16.80
2021,06,08,13,46,17.00
2021,06,08,13,47,17.20
2021,06,08,13,48,17.30
2021,06,08,13,49,17.40
2021,06,08,13,50,17.30
2021,06,08,13,51,17.30
2021,06,08,13,52,17.30
2021,06,08,13,53,17.30
2021,06,08,13,54,17.40
2021,06,08,13,55,17.50
2021,06,08,13,56,17.30
2021,06,08,13,57,17.30
2021,06,08,13,58,17.20
2021,06,08,13,59,17.20
2021,06,08,14,00,17.30
2021,06,08,14,01,17.30
2021,06,08,14,02,17.30
2021,06,08,14,03,17.30
2021,06,08,14,04,17.30
2021,06,08,14,05,17.30
2021,06,08,14,06,17.30
2021,06,08,14,07,17.40
2021,06,08,14,08,17.50
2021,06,08,14,09,17.40
2021,06,08,14,10,17.30
2021,06,08,14,11,17.30
2021,06,08,14,12,17.30
2021,06,08,14,13,17.40
2021,06,08,14,14,17.40
2021,06,08,14,15,17.40
2021,06,08,14,16,17.40
2021,06,08,14,17,17.30
2021,06,08,14,18,17.20
2021,06,08,14,19,16.80
2021,06,08,14,20,16.50
2021,06,08,14,21,16.30
2021,06,08,14,22,16.40
2021,06,08,14,23,16.30
2021,06,08,14,24,16.30
2021,06,08,14,25,16.30
2021,06,08,14,26,16.40
2021,06,08,14,27,16.40
2021,06,08,14,28,16.40
2021,06,08,14,29,16.20
2021,06,08,14,30,16.30
2021,06,08,14,31,16.40
2021,06,08,14,32,16.50
2021,06,08,14,33,16.70
2021,06,08,14,34,16.80
2021,06,08,14,35,16.80
2021,06,08,14,36,16.90
2021,06,08,14,37,17.10
2021,06,08,14,38,17.20
2021,06,08,14,39,17.10
2021,06,08,14,40,17.10
2021,06,08,14,41,17.20
2021,06,08,14,42,17.10
2021,06,08,14,43,17.10
2021,06,08,14,44,16.90
2021,06,08,14,45,16.90
2021,06,08,14,46,16.90
2021,06,08,14,47,16.90
2021,06,08,14,48,16.90
2021,06,08,14,49,16.90
2021,06,08,14,50,16.90
2021,06,08,14,51,16.90
2021,06,08,14,52,17.00
2021,06,08,14,53,17.10
2021,06,08,14,54,17.00
2021,06,08,14,55,16.90
2021,06,08,14,56,16.80
2021,06,08,14,57,16.90
2021,06,08,14,58,16.80
2021,06,08,14,59,16.70
2021,06,08,15,00,16.70
2021,06,08,15,01,16.50
2021,06,08,15,02,16.50
2021,06,08,15,03,16.40
2021,06,08,15,04,16.40
2021,06,08,15,05,16.50
2021,06,08,15,06,16.60
2021,06,08,15,07,16.80
2021,06,08,15,08,17.00
2021,06,08,15,09,16.90
2021,06,08,15,10,17.00
2021,06,08,15,11,17.00
2021,06,08,15,12,16.90
2021,06,08,15,13,16.60
2021,06,08,15,14,16.50
2021,06,08,15,15,16.50
2021,06,08,15,16,16.60
2021,06,08,15,17,16.90
2021,06,08,15,18,17.00
2021,06,08,15,19,17.00
2021,06,08,15,20,17.00
2021,06,08,15,21,17.10
2021,06,08,15,22,17.20
2021,06,08,15,23,17.20
2021,06,08,15,24,17.00
2021,06,08,15,25,16.90
2021,06,08,15,26,16.90
2021,06,08,15,27,16.90
2021,06,08,15,28,16.90
2021,06,08,15,29,17.00
2021,06,08,15,30,17.10
2021,06,08,15,31,17.30
2021,06,08,15,32,17.30
2021,06,08,15,33,17.40
2021,06,08,15,34,17.40
2021,06,08,15,35,17.30
2021,06,08,15,36,17.10
2021,06,08,15,37,16.90
2021,06,08,15,38,16.80
2021,06,08,15,39,16.80
2021,06,08,15,40,16.90
2021,06,08,15,41,17.10
2021,06,08,15,42,17.10
2021,06,08,15,43,17.00
2021,06,08,15,44,16.90
2021,06,08,15,45,17.00
2021,06,08,15,46,17.00
2021,06,08,15,47,17.00
2021,06,08,15,48,17.00
2021,06,08,15,49,17.00
2021,06,08,15,50,16.90
2021,06,08,15,51,16.90
2021,06,08,15,52,17.00
2021,06,08,15,53,17.10
2021,06,08,15,54,17.20
2021,06,08,15,55,17.20
2021,06,08,15,56,17.10
2021,06,08,15,57,17.10
2021,06,08,15,58,17.00
2021,06,08,15,59,17.00
2021,06,08,16,00,17.20
2021,06,08,16,01,17.30
2021,06,08,16,02,17.30
2021,06,08,16,03,17.30
2021,06,08,16,04,17.10
2021,06,08,16,05,17.00
2021,06,08,16,06,16.90
2021,06,08,16,07,16.90
2021,06,08,16,08,17.00
2021,06,08,16,09,17.10
2021,06,08,16,10,17.30
2021,06,08,16,11,17.30
2021,06,08,16,12,17.30
2021,06,08,16,13,17.30
2021,06,08,16,14,17.20
2021,06,08,16,15,17.20
2021,06,08,16,16,17.20
2021,06,08,16,17,17.20
2021,06,08,16,18,17.10
2021,06,08,16,19,17.10
2021,06,08,16,20,17.10
2021,06,08,16,21,17.00
2021,06,08,16,22,17.10
2021,06,08,16,23,17.20
2021,06,08,16,24,17.30
2021,06,08,16,25,17.20
2021,06,08,16,26,17.10
2021,06,08,16,27,17.00
2021,06,08,16,28,16.90
2021,06,08,16,29,16.70
2021,06,08,16,30,16.70
2021,06,08,16,31,16.60
2021,06,08,16,32,16.50
2021,06,08,16,33,16.40
2021,06,08,16,34,16.40
2021,06,08,16,35,16.40
2021,06,08,16,36,16.30
2021,06,08,16,37,16.30
2021,06,08,16,38,16.30
2021,06,08,16,39,16.30
2021,06,08,16,40,16.40
2021,06,08,16,41,16.40
2021,06,08,16,42,16.30
2021,06,08,16,43,16.30
2021,06,08,16,44,16.40
2021,06,08,16,45,16.30
2021,06,08,16,46,16.20
2021,06,08,16,47,16.20
2021,06,08,16,48,16.10
2021,06,08,16,49,16.00
2021,06,08,16,50,15.80
2021,06,08,16,51,15.70
2021,06,08,16,52,15.50
2021,06,08,16,53,15.50
2021,06,08,16,54,15.40
2021,06,08,16,55,15.30
2021,06,08,16,56,15.20
2021,06,08,16,57,15.10
2021,06,08,16,58,15.10
2021,06,08,16,59,15.00
2021,06,08,17,00,15.00
2021,06,08,17,01,14.90
2021,06,08,17,02,14.90
2021,06,08,17,03,14.80
2021,06,08,17,04,14.80
2021,06,08,17,05,14.80
2021,06,08,17,06,14.70
2021,06,08,17,07,14.70
2021,06,08,17,08,14.60
2021,06,08,17,09,14.60
2021,06,08,17,10,14.60
2021,06,08,17,11,14.60
2021,06,08,17,12,14.70
2021,06,08,17,13,14.70
2021,06,08,17,14,14.70
2021,06,08,17,15,14.70
2021,06,08,17,16,14.60
2021,06,08,17,17,14.60
2021,06,08,17,18,14.60
2021,06,08,17,19,14.50
2021,06,08,17,20,14.50
2021,06,08,17,21,14.60
2021,06,08,17,22,14.60
2021,06,08,17,23,14.50
2021,06,08,17,24,14.50
2021,06,08,17,25,14.60
2021,06,08,17,26,14.60
2021,06,08,17,27,14.60
2021,06,08,17,28,14.60
2021,06,08,17,29,14.60
2021,06,08,17,30,14.50
2021,06,08,17,31,14.50
2021,06,08,17,32,14.50
2021,06,08,17,33,14.40
2021,06,08,17,34,14.40
2021,06,08,17,35,14.50
2021,06,08,17,36,14.50
2021,06,08,17,37,14.50
2021,06,08,17,38,14.60